Torna al catalogo

FORMOSAT-8A

AttivoScienzaSSO
NORAD 66666·PAYLOAD·🇹🇼 Taiwan

Lanciato Nov 28, 2025 da Vandenberg Space Force Base

Loading…

Prossimi Passaggi (prossime 24 ore)

TLE

AggiornatoSource: Space-Track

Epoca: Sep 14, 2026, 03:28 UTC

1 66666U 25276A   26257.14455792  .00001296  00000-0  10603-3 0  9992
2 66666  97.6543 330.0521 0006050 332.4424  27.6478 15.01064045 43404

Traccia FORMOSAT-8A in tempo reale con AllMySat

Download on the App Store